| time (UTC) | temp C | wind direction | speed KPH | gust KPH | rain 1hr cm | rain 24hr cm | rain mn cm | humidity % | barometer mb |
| 20260505200521 | 32 | 344 | 3.2 | 17.7 | 0.00 | 0.00 | 0.00 | 57 | 1005.9 |
| 20260505200021 | 32 | 354 | 6.4 | 17.7 | 0.00 | 0.00 | 0.00 | 55 | 1006.1 |
| 20260505195020 | 32 | 157 | 3.2 | 9.7 | 0.00 | 0.00 | 0.00 | 55 | 1006.2 |
| 20260505194520 | 32 | 40 | 8.0 | 9.7 | 0.00 | 0.00 | 0.00 | 55 | 1006.3 |
| 20260505193949 | 32 | 122 | 3.2 | 8.0 | 0.00 | 0.00 | 0.00 | 57 | 1006.2 |
| 20260505193450 | 31 | 296 | 3.2 | 8.0 | 0.00 | 0.00 | 0.00 | 57 | 1006.1 |
| 20260505192950 | 32 | 285 | 3.2 | 8.0 | 0.00 | 0.00 | 0.00 | 58 | 1006.2 |
| 20260505192450 | 31 | 357 | 6.4 | 9.7 | 0.00 | 0.00 | 0.00 | 57 | 1006.2 |
| 20260505191949 | 31 | 10 | 6.4 | 9.7 | 0.00 | 0.00 | 0.00 | 58 | 1006.3 |
| 20260505190920 | 30 | 261 | 1.6 | 11.3 | 0.00 | 0.00 | 0.00 | 62 | 1006.2 |
| 20260505185919 | 31 | 51 | 3.2 | 4.8 | 0.00 | 0.00 | 0.00 | 62 | 1006.2 |
| 20260505185419 | 30 | 151 | 1.6 | 8.0 | 0.00 | 0.00 | 0.00 | 60 | 1006.4 |
| 20260505184918 | 30 | 318 | 3.2 | 8.0 | 0.00 | 0.00 | 0.00 | 62 | 1006.4 |
| 20260505184418 | 30 | 312 | 3.2 | 17.7 | 0.00 | 0.00 | 0.00 | 62 | 1006.6 |
| 20260505183348 | 29 | 340 | 3.2 | 6.4 | 0.00 | 0.00 | 0.00 | 63 | 1006.5 |
| 20260505182348 | 29 | 19 | 1.6 | 16.1 | 0.00 | 0.00 | 0.00 | 64 | 1006.5 |
| 20260505181848 | 29 | 284 | 1.6 | 9.7 | 0.00 | 0.00 | 0.00 | 63 | 1006.5 |
| 20260505180817 | 29 | 254 | 3.2 | 9.7 | 0.00 | 0.00 | 0.00 | 64 | 1006.5 |
| 20260505180316 | 29 | 325 | 1.6 | 14.5 | 0.00 | 0.00 | 0.00 | 64 | 1006.5 |
| 20260505175817 | 28 | 28 | 3.2 | 14.5 | 0.00 | 0.00 | 0.00 | 63 | 1006.4 |
| 20260505175316 | 30 | 39 | 0.0 | 12.9 | 0.00 | 0.00 | 0.00 | 62 | 1006.3 |
| 20260505174317 | 29 | 85 | 3.2 | 9.7 | 0.00 | 0.00 | 0.00 | 64 | 1006.6 |
| 20260505173816 | 29 | 149 | 0.0 | 9.7 | 0.00 | 0.00 | 0.00 | 64 | 1006.6 |
| 20260505173246 | 29 | 70 | 4.8 | 8.0 | 0.00 | 0.00 | 0.00 | 64 | 1006.6 |
| 20260505172746 | 28 | 354 | 0.0 | 8.0 | 0.00 | 0.00 | 0.00 | 65 | 1006.6 |
| 20260505172245 | 29 | 243 | 1.6 | 6.4 | 0.00 | 0.00 | 0.00 | 64 | 1006.7 |
| 20260505171746 | 28 | 10 | 3.2 | 6.4 | 0.00 | 0.00 | 0.00 | 65 | 1006.9 |
| 20260505171245 | 28 | 275 | 3.2 | 6.4 | 0.00 | 0.00 | 0.00 | 66 | 1006.5 |
| 20260505170746 | 28 | 162 | 1.6 | 17.7 | 0.00 | 0.00 | 0.00 | 68 | 1006.7 |
| 20260505170215 | 27 | 327 | 3.2 | 17.7 | 0.00 | 0.00 | 0.00 | 68 | 1006.6 |
| 20260505165715 | 28 | 211 | 1.6 | 8.0 | 0.00 | 0.00 | 0.00 | 65 | 1006.9 |
| 20260505165215 | 28 | 62 | 3.2 | 9.7 | 0.00 | 0.00 | 0.00 | 66 | 1006.5 |
| 20260505164715 | 27 | 134 | 4.8 | 9.7 | 0.00 | 0.00 | 0.00 | 67 | 1006.6 |
| 20260505164214 | 27 | 327 | 4.8 | 8.0 | 0.00 | 0.00 | 0.00 | 67 | 1006.5 |
| 20260505163715 | 27 | 186 | 1.6 | 9.7 | 0.00 | 0.00 | 0.00 | 68 | 1006.6 |
| 20260505163145 | 27 | 29 | 8.0 | 14.5 | 0.00 | 0.00 | 0.00 | 68 | 1006.5 |
| 20260505162143 | 27 | 336 | 0.0 | 8.0 | 0.00 | 0.00 | 0.00 | 68 | 1006.4 |
| 20260505161644 | 28 | 180 | 3.2 | 8.0 | 0.00 | 0.00 | 0.00 | 66 | 1006.5 |
| 20260505161143 | 27 | 180 | 3.2 | 8.0 | 0.00 | 0.00 | 0.00 | 67 | 1006.6 |
| 20260505160643 | 27 | 194 | 3.2 | 14.5 | 0.00 | 0.00 | 0.00 | 67 | 1006.3 |
| 20260505160114 | 27 | 286 | 3.2 | 14.5 | 0.00 | 0.00 | 0.00 | 67 | 1006.5 |
| 20260505153042 | 27 | 104 | 8.0 | 9.7 | 0.00 | 0.00 | 0.00 | 69 | 1006.4 |
| 20260505152542 | 27 | 127 | 3.2 | 9.7 | 0.00 | 0.00 | 0.00 | 69 | 1006.3 |
| 20260505152042 | 27 | 123 | 3.2 | 6.4 | 0.00 | 0.00 | 0.00 | 70 | 1006.5 |
| 20260505151542 | 26 | 204 | 3.2 | 6.4 | 0.00 | 0.00 | 0.00 | 71 | 1006.6 |
| 20260505151042 | 26 | 343 | 3.2 | 6.4 | 0.00 | 0.00 | 0.00 | 71 | 1006.5 |
| 20260505140440 | 23 | 353 | 3.2 | 6.4 | 0.00 | 0.00 | 0.00 | 80 | 1006.7 |
| 20260505124808 | 22 | 344 | 3.2 | 9.7 | 0.00 | 0.00 | 0.00 | 83 | 1006.1 |
| 20260505124307 | 22 | 182 | 3.2 | 6.4 | 0.00 | 0.00 | 0.00 | 83 | 1006.3 |
| 20260505123807 | 22 | 143 | 3.2 | 8.0 | 0.00 | 0.00 | 0.00 | 83 | 1005.9 |
| 20260505123307 | 22 | 2 | 3.2 | 9.7 | 0.00 | 0.00 | 0.00 | 83 | 1005.8 |
| 20260505122806 | 22 | 250 | 1.6 | 9.7 | 0.00 | 0.00 | 0.00 | 83 | 1005.7 |
| 20260505122307 | 22 | 122 | 3.2 | 6.4 | 0.00 | 0.00 | 0.00 | 83 | 1005.7 |
| 20260505121236 | 22 | 350 | 0.0 | 8.0 | 0.00 | 0.00 | 0.00 | 83 | 1005.7 |
| 20260505120736 | 22 | 121 | 3.2 | 11.3 | 0.00 | 0.00 | 0.00 | 83 | 1005.6 |
| 20260505120236 | 22 | 271 | 3.2 | 11.3 | 0.00 | 0.00 | 0.00 | 83 | 1005.7 |
| 20260505115736 | 22 | 45 | 3.2 | 6.4 | 0.00 | 0.00 | 0.00 | 83 | 1005.6 |
| 20260505115236 | 22 | 269 | 0.0 | 6.4 | 0.00 | 0.00 | 0.00 | 83 | 1005.8 |
| 20260505114705 | 22 | 215 | 3.2 | 8.0 | 0.00 | 0.00 | 0.00 | 83 | 1005.5 |
| 20260505114205 | 22 | 62 | 3.2 | 9.7 | 0.00 | 0.00 | 0.00 | 83 | 1005.6 |
| 20260505113204 | 22 | 159 | 3.2 | 8.0 | 0.00 | 0.00 | 0.00 | 83 | 1005.5 |
| 20260505112705 | 22 | 343 | 1.6 | 8.0 | 0.00 | 0.00 | 0.00 | 83 | 1005.4 |
| 20260505112205 | 21 | 92 | 3.2 | 6.4 | 0.00 | 0.00 | 0.00 | 84 | 1005.7 |
| 20260505111634 | 21 | 119 | 1.6 | 6.4 | 0.00 | 0.00 | 0.00 | 84 | 1005.6 |
| 20260505111135 | 21 | 106 | 1.6 | 6.4 | 0.00 | 0.00 | 0.00 | 84 | 1005.5 |
| 20260505110634 | 21 | 141 | 4.8 | 9.7 | 0.00 | 0.00 | 0.00 | 84 | 1005.5 |
| 20260505110134 | 21 | 103 | 3.2 | 9.7 | 0.00 | 0.00 | 0.00 | 84 | 1005.2 |
| 20260505102103 | 22 | 227 | 1.6 | 12.9 | 0.00 | 0.00 | 0.00 | 83 | 1005.5 |
| 20260505101533 | 22 | 32 | 3.2 | 6.4 | 0.00 | 0.00 | 0.00 | 83 | 1005.7 |
| 20260505101032 | 22 | 312 | 1.6 | 8.0 | 0.00 | 0.00 | 0.00 | 83 | 1005.6 |
| 20260505100533 | 22 | 99 | 0.0 | 8.0 | 0.00 | 0.00 | 0.00 | 83 | 1005.5 |
| 20260505100032 | 22 | 185 | 1.6 | 8.0 | 0.00 | 0.00 | 0.00 | 82 | 1005.6 |
| 20260505095532 | 22 | 309 | 1.6 | 6.4 | 0.00 | 0.00 | 0.00 | 82 | 1005.6 |
| 20260505095032 | 22 | 28 | 3.2 | 9.7 | 0.00 | 0.00 | 0.00 | 82 | 1005.6 |
| 20260505094532 | 22 | 154 | 0.0 | 9.7 | 0.00 | 0.00 | 0.00 | 82 | 1005.5 |
| 20260505094001 | 22 | 147 | 1.6 | 9.7 | 0.00 | 0.00 | 0.00 | 82 | 1005.8 |
| 20260505093502 | 22 | 41 | 6.4 | 17.7 | 0.00 | 0.00 | 0.00 | 82 | 1006.0 |
| 20260505092002 | 22 | 108 | 1.6 | 9.7 | 0.00 | 0.00 | 0.00 | 83 | 1005.8 |
| 20260505091501 | 22 | 353 | 1.6 | 9.7 | 0.00 | 0.00 | 0.00 | 83 | 1005.7 |
| 20260505090931 | 21 | 153 | 3.2 | 9.7 | 0.00 | 0.00 | 0.00 | 83 | 1006.0 |
| 20260505090430 | 21 | 129 | 4.8 | 9.7 | 0.00 | 0.00 | 0.00 | 83 | 1005.9 |
| 20260505085930 | 21 | 70 | 3.2 | 9.7 | 0.00 | 0.00 | 0.00 | 83 | 1006.1 |
| 20260505085430 | 21 | 38 | 3.2 | 9.7 | 0.00 | 0.00 | 0.00 | 83 | 1005.8 |
| 20260505084930 | 21 | 112 | 3.2 | 12.9 | 0.00 | 0.00 | 0.00 | 83 | 1005.9 |
| 20260505084430 | 21 | 125 | 4.8 | 12.9 | 0.00 | 0.00 | 0.00 | 83 | 1006.0 |
| 20260505083859 | 21 | 29 | 3.2 | 11.3 | 0.00 | 0.00 | 0.00 | 83 | 1006.0 |
| 20260505083400 | 21 | 133 | 0.0 | 9.7 | 0.00 | 0.00 | 0.00 | 83 | 1006.1 |
| 20260505082358 | 21 | 138 | 1.6 | 9.7 | 0.00 | 0.00 | 0.00 | 84 | 1005.8 |
| 20260505081859 | 21 | 101 | 0.0 | 8.0 | 0.00 | 0.00 | 0.00 | 83 | 1006.2 |
| 20260505081358 | 21 | 173 | 1.6 | 6.4 | 0.00 | 0.00 | 0.00 | 83 | 1006.0 |
| 20260505080828 | 21 | 92 | 3.2 | 8.0 | 0.00 | 0.00 | 0.00 | 83 | 1005.9 |
| 20260505075829 | 21 | 107 | 3.2 | 9.7 | 0.00 | 0.00 | 0.00 | 83 | 1006.1 |
| 20260505075328 | 21 | 78 | 4.8 | 9.7 | 0.00 | 0.00 | 0.00 | 82 | 1006.1 |
| 20260505074828 | 21 | 145 | 3.2 | 9.7 | 0.00 | 0.00 | 0.00 | 82 | 1006.3 |
| 20260505074328 | 21 | 115 | 1.6 | 6.4 | 0.00 | 0.00 | 0.00 | 82 | 1006.4 |
| 20260505073758 | 21 | 133 | 4.8 | 6.4 | 0.00 | 0.00 | 0.00 | 82 | 1006.5 |
| 20260505073258 | 21 | 349 | 3.2 | 6.4 | 0.00 | 0.00 | 0.00 | 81 | 1006.5 |
| 20260505072757 | 22 | 300 | 6.4 | 8.0 | 0.00 | 0.00 | 0.00 | 81 | 1006.6 |
| 20260505072257 | 22 | 107 | 3.2 | 8.0 | 0.00 | 0.00 | 0.00 | 81 | 1006.8 |
| 20260505071757 | 22 | 187 | 1.6 | 8.0 | 0.00 | 0.00 | 0.00 | 81 | 1006.8 |
| 20260505071256 | 22 | 108 | 3.2 | 9.7 | 0.00 | 0.00 | 0.00 | 80 | 1006.8 |
| 20260505070727 | 22 | 125 | 4.8 | 9.7 | 0.00 | 0.00 | 0.00 | 80 | 1007.0 |
| 20260505070226 | 22 | 89 | 0.0 | 8.0 | 0.00 | 0.00 | 0.00 | 80 | 1006.9 |
| 20260505065727 | 22 | 128 | 6.4 | 11.3 | 0.00 | 0.00 | 0.00 | 79 | 1006.8 |
| 20260505065226 | 22 | 72 | 4.8 | 11.3 | 0.00 | 0.00 | 0.00 | 79 | 1006.9 |
| 20260505064727 | 22 | 88 | 6.4 | 11.3 | 0.00 | 0.00 | 0.00 | 79 | 1007.1 |
| 20260505063656 | 22 | 128 | 6.4 | 6.4 | 0.00 | 0.00 | 0.00 | 78 | 1007.2 |
| 20260505063155 | 22 | 146 | 3.2 | 6.4 | 0.00 | 0.00 | 0.00 | 77 | 1007.2 |
| 20260505062655 | 22 | 108 | 4.8 | 8.0 | 0.00 | 0.00 | 0.00 | 77 | 1007.2 |
| 20260505062155 | 22 | 95 | 4.8 | 9.7 | 0.00 | 0.00 | 0.00 | 77 | 1007.3 |
| 20260505061656 | 22 | 12 | 3.2 | 9.7 | 0.00 | 0.00 | 0.00 | 77 | 1007.1 |
| 20260505061154 | 22 | 129 | 4.8 | 8.0 | 0.00 | 0.00 | 0.00 | 77 | 1007.2 |
| 20260505060625 | 22 | 117 | 4.8 | 14.5 | 0.00 | 0.00 | 0.00 | 76 | 1007.0 |
| 20260505055625 | 22 | 81 | 3.2 | 9.7 | 0.00 | 0.00 | 0.00 | 76 | 1007.1 |
| 20260505055124 | 22 | 191 | 0.0 | 11.3 | 0.00 | 0.00 | 0.00 | 75 | 1007.2 |
| 20260505054624 | 22 | 44 | 3.2 | 11.3 | 0.00 | 0.00 | 0.00 | 75 | 1007.3 |
| 20260505053624 | 22 | 167 | 3.2 | 12.9 | 0.00 | 0.00 | 0.00 | 75 | 1007.5 |
| 20260505053054 | 22 | 119 | 3.2 | 17.7 | 0.00 | 0.00 | 0.00 | 74 | 1007.3 |
| 20260505052554 | 22 | 105 | 4.8 | 17.7 | 0.00 | 0.00 | 0.00 | 74 | 1007.5 |
| 20260505052054 | 22 | 159 | 3.2 | 16.1 | 0.00 | 0.00 | 0.00 | 74 | 1007.4 |
| 20260505051053 | 22 | 34 | 6.4 | 6.4 | 0.00 | 0.00 | 0.00 | 74 | 1007.6 |
| 20260505050554 | 22 | 119 | 1.6 | 8.0 | 0.00 | 0.00 | 0.00 | 74 | 1007.5 |
| 20260505041452 | 23 | 143 | 1.6 | 8.0 | 0.00 | 0.00 | 0.00 | 71 | 1008.0 |
| 20260505040951 | 23 | 142 | 3.2 | 8.0 | 0.00 | 0.00 | 0.00 | 71 | 1007.8 |
| 20260505040451 | 23 | 100 | 3.2 | 8.0 | 0.00 | 0.00 | 0.00 | 71 | 1008.0 |
| 20260505035920 | 23 | 126 | 3.2 | 11.3 | 0.00 | 0.00 | 0.00 | 71 | 1007.9 |
| 20260505035420 | 23 | 345 | 1.6 | 11.3 | 0.00 | 0.00 | 0.00 | 71 | 1007.9 |
| 20260505034920 | 23 | 92 | 1.6 | 9.7 | 0.00 | 0.00 | 0.00 | 70 | 1007.8 |
| 20260505034421 | 23 | 87 | 3.2 | 9.7 | 0.00 | 0.00 | 0.00 | 70 | 1007.7 |
| 20260505033920 | 23 | 39 | 1.6 | 12.9 | 0.00 | 0.00 | 0.00 | 70 | 1007.6 |
| 20260505033420 | 23 | 19 | 3.2 | 12.9 | 0.00 | 0.00 | 0.00 | 70 | 1008.0 |
| 20260505032850 | 23 | 119 | 4.8 | 11.3 | 0.00 | 0.00 | 0.00 | 70 | 1008.0 |
| 20260505032350 | 23 | 146 | 6.4 | 11.3 | 0.00 | 0.00 | 0.00 | 70 | 1008.0 |
| 20260505031849 | 23 | 88 | 3.2 | 14.5 | 0.00 | 0.00 | 0.00 | 69 | 1008.0 |
| 20260505031350 | 23 | 108 | 4.8 | 14.5 | 0.00 | 0.00 | 0.00 | 69 | 1007.8 |
| 20260505030849 | 23 | 114 | 4.8 | 8.0 | 0.00 | 0.00 | 0.00 | 69 | 1008.0 |
| 20260505030349 | 23 | 126 | 3.2 | 8.0 | 0.00 | 0.00 | 0.00 | 69 | 1008.0 |
| 20260505025820 | 23 | 119 | 6.4 | 11.3 | 0.00 | 0.00 | 0.00 | 69 | 1007.8 |
| 20260505023818 | 23 | 103 | 0.0 | 9.7 | 0.00 | 0.00 | 0.00 | 68 | 1008.1 |
| 20260505022747 | 23 | 274 | 0.0 | 9.7 | 0.00 | 0.00 | 0.00 | 68 | 1007.6 |
| 20260505022248 | 23 | 116 | 0.0 | 12.9 | 0.00 | 0.00 | 0.00 | 68 | 1007.8 |
| 20260505021749 | 23 | 56 | 1.6 | 12.9 | 0.00 | 0.00 | 0.00 | 67 | 1007.7 |
| 20260505020748 | 23 | 346 | 3.2 | 9.7 | 0.00 | 0.00 | 0.00 | 67 | 1007.7 |
| 20260505020247 | 24 | 222 | 1.6 | 12.9 | 0.00 | 0.00 | 0.00 | 67 | 1007.6 |
| 20260505015747 | 24 | 216 | 3.2 | 12.9 | 0.00 | 0.00 | 0.00 | 67 | 1007.6 |
| 20260505015217 | 24 | 147 | 0.0 | 11.3 | 0.00 | 0.00 | 0.00 | 66 | 1007.7 |
| 20260505014717 | 24 | 134 | 6.4 | 9.7 | 0.00 | 0.00 | 0.00 | 66 | 1007.9 |
| 20260505013716 | 24 | 131 | 3.2 | 6.4 | 0.00 | 0.00 | 0.00 | 66 | 1007.7 |
| 20260505013216 | 24 | 99 | 3.2 | 6.4 | 0.00 | 0.00 | 0.00 | 66 | 1007.8 |
| 20260505012716 | 24 | 63 | 1.6 | 9.7 | 0.00 | 0.00 | 0.00 | 65 | 1007.6 |
| 20260505012146 | 25 | 83 | 1.6 | 9.7 | 0.00 | 0.00 | 0.00 | 65 | 1007.7 |
| 20260505011646 | 25 | 158 | 3.2 | 9.7 | 0.00 | 0.00 | 0.00 | 65 | 1007.6 |
| 20260505010647 | 25 | 80 | 3.2 | 17.7 | 0.00 | 0.00 | 0.00 | 64 | 1007.7 |
| 20260505010146 | 25 | 77 | 3.2 | 8.0 | 0.00 | 0.00 | 0.00 | 64 | 1007.4 |
| 20260505005645 | 25 | 104 | 8.0 | 14.5 | 0.00 | 0.00 | 0.00 | 64 | 1007.5 |
| 20260505004615 | 25 | 105 | 3.2 | 8.0 | 0.00 | 0.00 | 0.00 | 63 | 1007.5 |
| 20260505004115 | 25 | 117 | 4.8 | 11.3 | 0.00 | 0.00 | 0.00 | 63 | 1007.5 |
| 20260505003615 | 25 | 63 | 8.0 | 11.3 | 0.00 | 0.00 | 0.00 | 62 | 1007.7 |
| 20260505003114 | 25 | 103 | 4.8 | 9.7 | 0.00 | 0.00 | 0.00 | 62 | 1007.6 |
| 20260505002043 | 25 | 86 | 4.8 | 11.3 | 0.00 | 0.00 | 0.00 | 61 | 1007.8 |
| 20260505001044 | 26 | 219 | 3.2 | 9.7 | 0.00 | 0.00 | 0.00 | 60 | 1007.7 |
| 20260505000544 | 26 | 163 | 9.7 | 11.3 | 0.00 | 0.00 | 0.00 | 60 | 1007.9 |
| 20260505000044 | 26 | 267 | 3.2 | 17.7 | 0.00 | 0.00 | 0.00 | 60 | 1007.8 |
| 20260504235543 | 26 | 147 | 12.9 | 17.7 | 0.00 | 0.00 | 0.00 | 60 | 1007.9 |
| 20260504235014 | 26 | 247 | 6.4 | 9.7 | 0.00 | 0.00 | 0.00 | 59 | 1008.0 |
| 20260504234513 | 26 | 24 | 3.2 | 9.7 | 0.00 | 0.00 | 0.00 | 59 | 1008.0 |
| 20260504233513 | 26 | 74 | 1.6 | 9.7 | 0.00 | 0.00 | 0.00 | 58 | 1007.8 |
| 20260504232012 | 26 | 116 | 1.6 | 22.5 | 0.00 | 0.00 | 0.00 | 58 | 1008.0 |
| 20260504231442 | 26 | 234 | 3.2 | 14.5 | 0.00 | 0.00 | 0.00 | 58 | 1008.0 |
| 20260504230942 | 27 | 127 | 4.8 | 9.7 | 0.00 | 0.00 | 0.00 | 57 | 1008.4 |
| 20260504225941 | 27 | 46 | 3.2 | 19.3 | 0.00 | 0.00 | 0.00 | 56 | 1008.3 |
| 20260504225441 | 28 | 34 | 3.2 | 11.3 | 0.00 | 0.00 | 0.00 | 55 | 1008.2 |
| 20260504224941 | 28 | 121 | 6.4 | 12.9 | 0.00 | 0.00 | 0.00 | 55 | 1008.5 |
| 20260504224411 | 28 | 134 | 0.0 | 12.9 | 0.00 | 0.00 | 0.00 | 54 | 1008.4 |
| 20260504223911 | 27 | 115 | 6.4 | 9.7 | 0.00 | 0.00 | 0.00 | 55 | 1008.5 |
| 20260504223410 | 28 | 61 | 6.4 | 19.3 | 0.00 | 0.00 | 0.00 | 54 | 1008.5 |
| 20260504222910 | 28 | 106 | 4.8 | 19.3 | 0.00 | 0.00 | 0.00 | 54 | 1008.4 |
| 20260504222411 | 28 | 102 | 3.2 | 14.5 | 0.00 | 0.00 | 0.00 | 54 | 1008.3 |
| 20260504221911 | 27 | 1 | 3.2 | 12.9 | 0.00 | 0.00 | 0.00 | 54 | 1008.4 |
| 20260504221340 | 27 | 70 | 6.4 | 8.0 | 0.00 | 0.00 | 0.00 | 54 | 1008.4 |
| 20260504220840 | 27 | 103 | 4.8 | 9.7 | 0.00 | 0.00 | 0.00 | 55 | 1008.5 |
| 20260504220340 | 27 | 93 | 4.8 | 9.7 | 0.00 | 0.00 | 0.00 | 54 | 1008.6 |
| 20260504215840 | 28 | 35 | 4.8 | 20.9 | 0.00 | 0.00 | 0.00 | 53 | 1008.7 |
| 20260504215339 | 28 | 128 | 19.3 | 19.3 | 0.00 | 0.00 | 0.00 | 53 | 1008.6 |
| 20260504214839 | 28 | 110 | 6.4 | 14.5 | 0.00 | 0.00 | 0.00 | 53 | 1008.8 |
| 20260504214309 | 29 | 357 | 1.6 | 9.7 | 0.00 | 0.00 | 0.00 | 54 | 1008.8 |
| 20260504213809 | 28 | 75 | 3.2 | 11.3 | 0.00 | 0.00 | 0.00 | 53 | 1009.0 |
| 20260504213310 | 27 | 72 | 4.8 | 11.3 | 0.00 | 0.00 | 0.00 | 55 | 1009.1 |
| 20260504212809 | 27 | 128 | 8.0 | 14.5 | 0.00 | 0.00 | 0.00 | 54 | 1009.2 |
| 20260504212309 | 28 | 338 | 4.8 | 17.7 | 0.00 | 0.00 | 0.00 | 54 | 1009.1 |
| 20260504211809 | 28 | 108 | 6.4 | 17.7 | 0.00 | 0.00 | 0.00 | 54 | 1009.3 |
| 20260504211238 | 28 | 133 | 6.4 | 17.7 | 0.00 | 0.00 | 0.00 | 54 | 1009.4 |
| 20260504210739 | 27 | 147 | 8.0 | 20.9 | 0.00 | 0.00 | 0.00 | 55 | 1009.6 |
| 20260504205237 | 27 | 138 | 11.3 | 16.1 | 0.00 | 0.00 | 0.00 | 54 | 1009.8 |
| 20260504204207 | 28 | 161 | 1.6 | 19.3 | 0.00 | 0.00 | 0.00 | 51 | 1010.0 |
| 20260504203708 | 28 | 191 | 3.2 | 17.7 | 0.00 | 0.00 | 0.00 | 52 | 1010.1 |
| 20260504203206 | 28 | 134 | 6.4 | 17.7 | 0.00 | 0.00 | 0.00 | 53 | 1010.2 |
| 20260504202707 | 28 | 122 | 6.4 | 9.7 | 0.00 | 0.00 | 0.00 | 53 | 1010.3 |
| 20260504202207 | 28 | 312 | 3.2 | 14.5 | 0.00 | 0.00 | 0.00 | 50 | 1010.5 |
| 20260504201707 | 28 | 133 | 11.3 | 20.9 | 0.00 | 0.00 | 0.00 | 51 | 1010.4 |